Flag for Myanmar Weather past 2 weeks in Yangon, Myanmar

Now
84 °F

Mostly cloudy.


Feels Like: 91 °F
Forecast: 76 / 86 °F
Wind: 5 mph from West

Location: Rangoon Airport

Current Time: May 24, 2015 at 12:44:06 PM

Latest Report: May 24, 2015 at 12:00 PM


Visibility: 4 mi

Pressure: 29.80 "Hg

Humidity: 70%

Dew point: 73 °F

Location of YangonLocation

Historic Weather in Yangon — Graph

°F

Yangon temperature yesterday

Maximum temperature yesterday: 82 °F (at 3:00 PM)
Minimum temperature yesterday: 75 °F (at 12:00 AM)
Average temperature yesterday: 79 °F

Past Weeks' High & Low Weather Summary

 TemperatureHumidityPressure
High102 °F (May 11, 3:00 PM)100% (May 18, 4:00 PM)32.49 "Hg (May 18, 4:00 PM)
Low75 °F (May 22, 9:00 PM)35% (May 9, 3:30 PM)29.62 "Hg (May 21, 2:00 PM)
Average85 °F77%29.77 "Hg
* Reported May 9 11:30 AM — May 24 11:30 AM, Yangon, Weather by CustomWeather, © 2015

Note: Actual official high and low records may vary slightly from our data, if they occured in-between our weather recording intervals... More about our weather records

Advertising

Yangon weather history for previous 24 hours

 ConditionsComfort  
Time TempWeatherWind HumidityBarometerVisibility
11:30 AM
Sun, May 24
84 °FMostly cloudy.5 mph70%29.80 "Hg4 mi
11:00 AM82 °FMostly cloudy.5 mph74%29.80 "Hg4 mi
10:00 AM81 °FMostly cloudy.3 mph79%29.80 "Hg4 mi
9:30 AM81 °FMostly cloudy.5 mph84%29.80 "Hg4 mi
9:00 AM81 °FMostly cloudy.5 mph84%29.80 "Hg4 mi
8:30 AM79 °FMostly cloudy.2 mph84%29.80 "Hg4 mi
8:00 AM79 °FDrizzle. Mostly cloudy.2 mph84%29.80 "Hg4 mi
7:00 AM77 °FMostly cloudy.2 mph100%29.77 "Hg4 mi
6:30 AM77 °FMostly cloudy.2 mph100%29.74 "Hg4 mi
6:00 AM77 °FMostly cloudy.1 mph100%29.74 "Hg4 mi
5:30 AM77 °FDrizzle. Mostly cloudy.3 mph100%29.74 "Hg3 mi
5:00 AM77 °FDrizzle. Mostly cloudy.1 mph100%29.74 "Hg3 mi
4:30 AM77 °FDrizzle. Mostly cloudy.2 mph100%29.74 "Hg3 mi
11:30 PM
Sat, May 23
77 °FPassing clouds.5 mph89%29.77 "Hg4 mi
11:00 PM77 °FPassing clouds.5 mph89%29.77 "Hg4 mi
10:30 PM79 °FPassing clouds.6 mph94%29.77 "Hg4 mi
10:00 PM79 °FPassing clouds.8 mph94%29.77 "Hg4 mi
9:30 PM79 °FPassing clouds.5 mph94%29.77 "Hg4 mi
9:00 PM81 °FPassing clouds.9 mph94%29.77 "Hg4 mi
8:30 PM81 °FPassing clouds.2 mph84%29.77 "Hg4 mi
7:30 PM81 °FPassing clouds.3 mph84%29.74 "Hg4 mi
7:00 PM81 °FPartly sunny.2 mph84%29.71 "Hg4 mi
6:30 PM82 °FPartly sunny.5 mph84%29.71 "Hg4 mi
6:00 PM82 °FPartly sunny.3 mph84%29.71 "Hg4 mi
5:30 PM82 °FPartly sunny.2 mph84%29.68 "Hg4 mi
5:00 PM82 °FPartly sunny.2 mph84%29.68 "Hg4 mi
4:30 PM82 °FPartly sunny.6 mph84%29.68 "Hg4 mi
4:00 PM82 °FMostly cloudy.6 mph84%29.71 "Hg4 mi
3:30 PM82 °FMostly cloudy.6 mph84%29.71 "Hg4 mi
3:00 PM82 °FMostly cloudy.8 mph84%29.71 "Hg3 mi
2:30 PM81 °FMostly cloudy.6 mph84%29.71 "Hg4 mi
2:00 PM81 °FMostly cloudy.8 mph84%29.74 "Hg4 mi
1:30 PM77 °FDrizzle. Mostly cloudy.3 mph100%29.74 "Hg4 mi
1:00 PM77 °FLight rain. Mostly cloudy.3 mph100%29.77 "Hg3 mi
12:30 PM77 °FRain. Mostly cloudy.2 mph100%29.77 "Hg2 mi
12:00 PM77 °FRain. Mostly cloudy.2 mph100%29.77 "Hg2 mi
Weather by CustomWeather, © 2015

See weather overviewHow to use our weather pages